SCP
-0 -0 -0 -0 -0 -0 -0 -0 -1 -0 -0 -0 -0 -0 -0 -0 -0 -0 -0 -0 -0 -0 0 -0 -0 -0 -0 0 0 0 0 0 -0 -0 0 0 0 0 0 0 0 0 0
-0 0 -0 -0 -1 -0 -0 -0 -0 -0 -0 -0 -0 -0 -0 -0 -0 -0 -0 -0 -0 0 -0 -0 -0 0 0 0 0 0 0 -0 -0 -0 0 0 0 0 0 0 0 0 0
-1 -0 -0 0 -1 -0 -0 -0 -0 -0 -0 -1 -0 -0 -0 -0 -0 -0 -0 -0 0 0 0 -0 0 0 0 0 0 -0 -0 -0 -0 0 0 0 0 0 0 0 0 0 0
-0 0 0 0 0 -1 -0 -0 -0 -0 -0 -0 -0 -0 -0 -0 -0 -0 -0 -0 -0 0 -0 -0 0 0 0 0 0 0 0 0 0 0 0 0 0 0 0 0 0 0 0
0 0 0 0 0 -0 -0 -0 -0 -0 -0 -0 -0 -0 -0 -0 -0 -0 -0 -0 -0 -0 -0 -0 0 0 0 0 0 0 0 0 0 0 0 0 0 0 0 0 0 0 0
-0 0 0 0 0 0 -0 -0 -0 -0 -0 -0 -0 -0 -0 -0 -0 -0 -0 -0 -0 -0 -0 0 0 0 0 0 0 0 0 0 0 0 0 0 0 0 0 0 0 0 0
0 -0 0 1 0 0 0 0 0 -0 -0 -0 -0 -0 -0 -0 -0 -0 -0 -0 -0 -0 0 0 0 0 0 0 0 0 0 0 0 0 0 0 0 0 0 0 0 0 0
0 0 0 0 0 0 0 0 0 0 -0 -0 -0 -0 -0 -0 -0 -0 -0 -0 -0 0 0 0 0 0 0 0 0 0 0 0 0 0 0 0 0 0 0 0 0 0 0
0 0 0 0 0 0 0 0 0 0 0 0 0 0 0 0 0 -0 0 0 0 0 0 0 0 0 0 0 0 0 0 0 0 0 0 0 0 0 0 0 0 0 0
0 0 0 0 0 0 0 0 0 0 0 0 0 0 0 0 0 0 0 0 0 0 0 0 0 0 0 0 0 0 0 0 0 0 0 0 0 0 0 0 0 0 0
1 0 0 0 0 0 0 0 0 0 0 0 0 0 0 0 0 0 0 0 0 0 0 0 0 0 0 0 0 0 0 0 0 0 0 0 0 0 0 0 0 0 0
1 1 0 0 0 0 0 0 0 0 0 0 0 0 0 0 0 0 0 0 0 0 0 0 0 0 0 0 0 0 0 0 0 0 0 0 0 0 0 0 0 0 0
1 1 1 1 0 0 0 0 0 0 0 0 0 0 0 0 0 0 0 0 0 0 0 0 0 0 0 0 0 0 0 0 0 0 0 0 0 0 0 0 0 0 0
0 0 1 1 1 0 0 0 0 0 0 0 0 0 0 0 0 0 0 0 0 0 0 0 0 0 0 0 0 0 0 0 0 0 0 0 0 0 0 0 0 0 0
0 1 1 1 1 1 1 0 0 0 0 0 0 0 0 0 0 0 0 0 0 0 0 0 0 0 0 0 0 0 0 0 0 0 0 0 0 0 0 0 0 0 0
1 1 1 1 2 1 1 1 0 0 0 0 0 0 0 0 0 0 0 0 0 0 0 0 0 0 0 0 0 0 0 0 0 0 0 0 0 0 0 0 0 0 0
1 1 1 1 2 1 1 1 0 0 0 0 0 0 0 0 0 0 0 0 0 0 0 0 0 0 0 0 0 0 0 0 0 0 0 0 0 0 0 0 0 0 0
1 1 1 1 1 1 1 1 0 0 0 0 0 0 0 0 0 0 0 0 0 0 0 0 0 0 0 0 0 0 0 0 0 0 0 0 0 0 0 0 0 0 0
-0 0 0 1 1 1 1 1 0 0 0 0 0 0 0 0 0 0 0 0 0 0 0 0 0 0 0 0 0 0 0 0 0 0 0 0 0 0 0 0 0 0 0
0 0 1 2 2 2 2 1 0 0 0 0 0 0 0 0 0 0 0 0 0 0 0 0 0 0 0 0 0 0 0 0 0 0 0 0 0 0 0 0 0 0 0
1 1 2 2 2 2 1 1 1 0 0 0 0 0 0 0 0 0 0 0 0 0 0 0 0 0 0 0 0 0 0 0 0 0 0 0 0 0 0 0 0 0 0
1 1 2 3 2 2 2 1 1 0 0 0 0 0 0 0 0 0 0 0 0 0 0 0 0 0 0 0 0 0 0 0 0 0 0 0 0 0 0 0 0 0 0
1 1 2 2 2 2 2 2 1 0 0 0 0 0 0 0 0 0 0 0 0 0 0 0 0 0 0 0 0 0 0 0 0 0 0 0 0 0 0 0 0 0 0
1 1 2 1 1 1 1 1 0 0 0 0 0 0 0 1 0 0 0 0 0 0 0 0 0 0 0 0 0 0 0 0 0 0 0 0 0 0 0 0 0 0 0
1 1 2 1 1 0 1 1 1 1 0 0 0 0 0 1 0 0 0 0 0 0 0 0 0 0 0 0 0 0 0 0 0 0 0 0 0 0 0 0 0 0 0
1 1 1 0 1 0 1 1 1 1 1 0 0 0 1 0 0 0 0 0 0 0 0 0 0 0 0 0 0 0 0 0 0 0 0 0 0 0 0 0 0 0 0
Wind_Speed_500mb
54 65 63 54 47 45 50 55 58 55 47 40 38 39 38 39 37 33 27 24 24 24 24 22 21 17 15 12 10 11 10 10 8 8 8 8 10 12 15 19 23 24 30
53 68 67 59 50 49 53 59 59 55 50 42 40 41 38 37 36 30 26 24 23 23 22 22 21 17 13 11 9 8 7 6 5 5 6 9 12 15 16 19 25 29 33
53 68 68 61 54 51 54 61 58 54 52 47 42 41 39 36 36 29 24 24 25 24 23 21 20 17 14 9 7 6 6 4 2 4 6 10 15 16 18 21 26 33 39
42 66 69 63 58 55 56 62 59 56 52 48 45 42 38 34 35 30 25 26 25 24 22 20 17 15 12 9 8 7 4 2 5 7 9 11 15 15 17 24 33 39 36
47 68 69 64 58 54 59 63 61 57 53 48 45 43 41 37 34 28 27 27 26 24 23 20 17 13 9 7 7 5 4 5 6 8 12 13 8 14 20 29 39 40 38
48 65 70 65 58 54 58 62 61 58 53 50 47 44 42 39 34 31 30 28 27 25 22 20 17 13 10 7 4 2 3 4 6 10 14 15 13 17 26 35 38 35 36
50 68 72 67 60 57 56 59 60 57 54 51 50 48 44 39 35 33 32 30 28 26 23 19 15 13 11 7 4 0 4 8 12 15 16 15 17 22 30 35 33 32 36
61 68 74 69 62 57 55 55 56 56 54 52 50 49 45 39 37 35 33 32 29 26 21 18 15 11 9 7 5 1 7 14 17 18 19 19 20 24 32 33 32 35 41
58 68 77 72 64 58 54 53 54 54 54 53 52 48 43 40 38 34 33 32 30 28 22 17 14 13 10 4 2 6 12 15 19 22 21 19 20 27 30 29 32 39 48
55 70 79 76 70 65 59 54 54 54 54 53 51 48 44 40 37 34 33 32 30 26 22 18 16 12 8 2 2 7 11 19 25 26 20 20 21 27 26 28 34 43 52
49 63 81 80 76 70 63 59 55 55 54 53 51 48 46 44 40 37 35 32 29 25 22 19 18 14 7 3 3 9 15 23 27 23 20 20 24 23 25 29 38 45 44
49 62 75 79 79 74 67 62 60 60 59 57 55 52 49 45 42 38 34 32 28 24 20 17 17 15 10 8 9 13 19 26 28 21 18 20 21 21 25 32 40 42 45
40 51 66 82 81 75 72 70 66 64 65 64 58 54 49 47 43 40 36 29 25 23 18 16 14 12 10 9 9 14 21 29 24 16 16 19 21 21 27 35 39 41 44
49 52 60 75 85 80 77 71 68 67 66 64 60 55 51 48 44 40 34 28 26 23 19 18 14 13 16 12 12 19 28 25 20 14 17 21 19 21 27 30 38 37 44
45 61 66 71 85 87 82 76 71 67 64 61 59 55 51 46 42 37 30 27 28 25 19 17 16 16 12 11 17 23 24 22 19 18 21 23 21 24 27 30 36 38 43
50 58 71 74 83 90 87 82 75 68 62 59 59 54 50 45 39 35 30 28 26 22 18 19 20 17 13 17 20 24 22 21 22 22 25 24 25 28 28 33 37 39 42
58 59 70 85 86 89 90 87 78 72 63 60 57 53 51 46 40 33 32 29 26 22 18 15 15 14 14 19 22 24 21 21 24 26 29 28 27 30 32 37 39 43 43
54 62 70 80 84 87 94 88 81 73 64 59 55 53 50 45 40 35 33 30 26 22 18 17 18 15 18 22 25 23 24 24 26 29 30 28 28 27 32 35 39 45 45
47 59 69 72 84 88 87 88 82 75 68 61 55 51 47 44 40 35 31 29 26 21 19 20 20 18 21 25 24 22 23 25 27 30 28 25 26 28 30 37 44 47 42
46 60 66 72 78 83 83 89 84 77 74 68 60 52 48 44 44 39 32 28 24 22 20 22 22 22 22 23 20 22 23 22 23 24 22 23 26 27 33 42 52 50 44
53 66 67 77 81 87 85 86 84 83 78 71 62 52 46 44 43 38 33 28 27 25 23 24 24 23 23 19 18 21 21 21 23 21 23 26 26 32 38 47 50 45 42
60 71 68 72 80 82 85 82 79 85 79 71 63 54 47 45 45 39 33 31 29 26 25 27 25 23 21 16 12 14 7 21 23 26 28 28 32 36 41 51 47 47 43
56 75 78 73 74 81 81 71 72 75 71 69 62 56 51 48 49 40 34 29 25 24 26 24 21 18 18 16 13 9 9 7 21 20 24 27 29 35 48 44 44 41 41
55 62 84 77 74 76 83 77 71 78 78 72 69 60 55 53 50 43 35 29 27 25 22 20 20 18 13 13 14 18 16 18 10 15 19 28 29 39 38 35 36 37 48
51 59 82 87 80 72 71 73 65 67 66 62 60 61 61 55 51 44 37 33 28 26 22 17 17 13 12 10 12 16 15 16 17 13 30 23 32 32 32 27 33 36 43
48 53 71 91 83 71 65 62 65 68 62 60 65 65 65 59 52 46 41 36 32 27 24 19 13 14 10 8 7 9 13 11 17 14 23 36 36 28 36 26 27 31 38
Wind_Direction_500mb
189 180 178 181 178 177 175 176 174 171 172 175 172 168 162 169 170 166 162 161 163 157 150 148 145 145 143 138 130 121 116 104 84 63 56 40 25 16 9 2 353 347 341
187 181 182 183 179 177 176 177 176 175 175 181 181 175 168 170 173 171 167 168 167 159 152 146 145 150 147 140 130 106 109 123 82 53 23 8 1 355 346 339 338 331 328
195 184 184 184 180 181 178 179 179 179 179 183 184 181 175 176 176 174 170 167 165 159 155 152 153 154 153 146 130 125 127 133 75 24 356 338 328 336 338 331 323 325 327
211 191 186 186 184 182 181 181 180 181 184 184 185 184 182 181 179 175 172 166 164 162 159 158 160 158 160 159 178 189 196 254 306 322 334 332 324 322 321 329 329 328 335
207 193 188 186 187 186 183 183 184 184 185 187 192 190 186 183 182 177 172 168 168 168 166 167 165 166 175 188 202 206 239 276 299 341 336 331 335 318 333 338 336 340 343
201 194 191 189 189 190 186 186 186 189 192 193 194 193 188 181 181 176 173 173 173 174 175 175 173 171 189 192 200 214 298 329 357 340 327 320 305 330 340 337 337 342 350
209 196 193 190 191 193 192 189 189 192 195 195 192 188 186 182 181 178 176 177 179 179 183 181 180 181 188 187 197 24 359 357 345 317 318 320 325 330 333 334 338 346 354
206 199 194 193 191 193 195 193 193 192 192 193 190 186 185 184 183 181 181 180 181 184 188 189 187 185 188 180 190 5 351 345 329 324 328 328 323 323 328 333 336 348 351
205 200 195 192 191 196 198 197 196 194 192 191 190 188 187 185 185 185 183 183 184 186 193 198 198 185 185 197 320 346 346 336 326 337 327 319 317 321 326 331 341 346 344
213 202 198 196 194 193 194 197 197 197 194 193 193 190 188 186 188 188 187 185 188 189 196 204 203 190 185 170 19 2 355 351 347 334 319 314 313 318 323 334 343 347 346
212 201 200 197 197 196 197 194 196 198 197 197 196 193 189 188 190 192 191 188 191 194 201 208 205 203 222 267 301 334 335 343 334 326 318 314 314 319 327 338 345 346 348
214 202 200 198 200 197 197 198 195 197 197 198 198 195 192 191 195 194 195 193 192 198 201 205 204 214 236 267 284 323 334 330 329 322 312 311 312 317 328 340 343 345 345
218 207 202 202 203 200 198 197 198 199 199 200 200 199 194 193 196 196 199 196 194 198 196 195 203 221 242 264 299 309 315 321 320 318 303 308 310 316 330 335 341 341 342
223 213 209 207 205 203 204 201 201 201 203 203 200 199 197 197 198 200 200 194 197 199 199 206 218 243 260 271 281 308 312 314 311 301 300 303 301 313 325 329 328 332 337
222 220 211 211 208 205 206 205 204 205 205 204 203 200 200 202 203 203 200 195 198 203 211 221 239 260 255 264 294 308 315 307 299 292 291 296 295 302 311 319 321 329 332
239 226 216 213 213 209 206 208 206 207 207 206 207 203 203 205 207 205 201 195 202 210 223 236 244 253 252 279 293 307 311 303 293 287 287 288 288 297 306 314 319 326 329
237 236 224 218 216 211 207 208 208 209 207 209 208 207 207 206 209 205 199 200 213 220 229 246 238 248 270 284 302 310 306 299 287 285 290 285 287 297 306 314 322 327 325
229 222 224 218 213 210 208 208 208 209 210 211 213 209 209 208 210 209 206 210 219 225 237 240 245 257 275 292 303 305 299 294 294 295 290 283 284 291 304 315 323 324 320
234 221 214 210 208 208 208 207 209 210 210 212 215 215 212 211 211 205 208 216 226 235 242 241 247 265 280 295 302 300 297 297 297 291 287 280 284 293 308 317 323 323 323
227 220 215 209 203 204 204 204 207 207 208 211 214 214 213 212 209 213 218 219 230 240 246 247 254 269 286 298 299 300 302 305 298 292 281 277 285 299 312 321 325 323 322
220 211 213 203 205 208 206 205 205 206 208 210 214 215 216 212 211 213 218 222 226 237 245 249 259 276 290 295 302 306 309 309 299 287 280 281 293 304 312 321 319 317 319
217 212 210 213 210 208 208 205 207 205 206 210 212 215 216 211 210 215 224 223 231 240 247 251 260 272 275 283 303 315 286 308 291 288 280 290 301 308 316 318 319 316 317
214 216 209 207 210 211 207 200 197 198 205 209 211 214 212 208 209 214 216 224 237 239 240 248 255 266 269 294 310 308 321 305 312 301 304 298 305 311 322 323 321 315 317
225 220 214 202 197 201 200 194 194 194 199 205 210 210 204 203 204 208 215 222 226 230 236 245 263 266 263 284 307 305 300 290 306 309 316 310 312 317 322 328 323 319 321
220 218 211 202 199 195 194 192 189 196 203 209 209 205 202 196 203 209 214 217 220 223 228 241 254 262 267 287 299 304 303 300 306 308 306 312 317 316 323 330 323 322 322
212 198 205 199 199 196 190 190 192 196 199 201 202 197 196 198 205 206 210 212 215 220 223 234 257 258 269 295 316 301 297 304 316 331 314 321 318 327 327 327 323 325 326
Wind_Speed_850mb
54 65 63 54 47 45 50 55 58 55 47 40 38 39 38 39 37 33 27 24 24 24 24 22 21 17 15 12 10 11 10 10 8 8 8 8 10 12 15 19 23 24 30
53 68 67 59 50 49 53 59 59 55 50 42 40 41 38 37 36 30 26 24 23 23 22 22 21 17 13 11 9 8 7 6 5 5 6 9 12 15 16 19 25 29 33
53 68 68 61 54 51 54 61 58 54 52 47 42 41 39 36 36 29 24 24 25 24 23 21 20 17 14 9 7 6 6 4 2 4 6 10 15 16 18 21 26 33 39
42 66 69 63 58 55 56 62 59 56 52 48 45 42 38 34 35 30 25 26 25 24 22 20 17 15 12 9 8 7 4 2 5 7 9 11 15 15 17 24 33 39 36
47 68 69 64 58 54 59 63 61 57 53 48 45 43 41 37 34 28 27 27 26 24 23 20 17 13 9 7 7 5 4 5 6 8 12 13 8 14 20 29 39 40 38
48 65 70 65 58 54 58 62 61 58 53 50 47 44 42 39 34 31 30 28 27 25 22 20 17 13 10 7 4 2 3 4 6 10 14 15 13 17 26 35 38 35 36
50 68 72 67 60 57 56 59 60 57 54 51 50 48 44 39 35 33 32 30 28 26 23 19 15 13 11 7 4 0 4 8 12 15 16 15 17 22 30 35 33 32 36
61 68 74 69 62 57 55 55 56 56 54 52 50 49 45 39 37 35 33 32 29 26 21 18 15 11 9 7 5 1 7 14 17 18 19 19 20 24 32 33 32 35 41
58 68 77 72 64 58 54 53 54 54 54 53 52 48 43 40 38 34 33 32 30 28 22 17 14 13 10 4 2 6 12 15 19 22 21 19 20 27 30 29 32 39 48
55 70 79 76 70 65 59 54 54 54 54 53 51 48 44 40 37 34 33 32 30 26 22 18 16 12 8 2 2 7 11 19 25 26 20 20 21 27 26 28 34 43 52
49 63 81 80 76 70 63 59 55 55 54 53 51 48 46 44 40 37 35 32 29 25 22 19 18 14 7 3 3 9 15 23 27 23 20 20 24 23 25 29 38 45 44
49 62 75 79 79 74 67 62 60 60 59 57 55 52 49 45 42 38 34 32 28 24 20 17 17 15 10 8 9 13 19 26 28 21 18 20 21 21 25 32 40 42 45
40 51 66 82 81 75 72 70 66 64 65 64 58 54 49 47 43 40 36 29 25 23 18 16 14 12 10 9 9 14 21 29 24 16 16 19 21 21 27 35 39 41 44
49 52 60 75 85 80 77 71 68 67 66 64 60 55 51 48 44 40 34 28 26 23 19 18 14 13 16 12 12 19 28 25 20 14 17 21 19 21 27 30 38 37 44
45 61 66 71 85 87 82 76 71 67 64 61 59 55 51 46 42 37 30 27 28 25 19 17 16 16 12 11 17 23 24 22 19 18 21 23 21 24 27 30 36 38 43
50 58 71 74 83 90 87 82 75 68 62 59 59 54 50 45 39 35 30 28 26 22 18 19 20 17 13 17 20 24 22 21 22 22 25 24 25 28 28 33 37 39 42
58 59 70 85 86 89 90 87 78 72 63 60 57 53 51 46 40 33 32 29 26 22 18 15 15 14 14 19 22 24 21 21 24 26 29 28 27 30 32 37 39 43 43
54 62 70 80 84 87 94 88 81 73 64 59 55 53 50 45 40 35 33 30 26 22 18 17 18 15 18 22 25 23 24 24 26 29 30 28 28 27 32 35 39 45 45
47 59 69 72 84 88 87 88 82 75 68 61 55 51 47 44 40 35 31 29 26 21 19 20 20 18 21 25 24 22 23 25 27 30 28 25 26 28 30 37 44 47 42
46 60 66 72 78 83 83 89 84 77 74 68 60 52 48 44 44 39 32 28 24 22 20 22 22 22 22 23 20 22 23 22 23 24 22 23 26 27 33 42 52 50 44
53 66 67 77 81 87 85 86 84 83 78 71 62 52 46 44 43 38 33 28 27 25 23 24 24 23 23 19 18 21 21 21 23 21 23 26 26 32 38 47 50 45 42
60 71 68 72 80 82 85 82 79 85 79 71 63 54 47 45 45 39 33 31 29 26 25 27 25 23 21 16 12 14 7 21 23 26 28 28 32 36 41 51 47 47 43
56 75 78 73 74 81 81 71 72 75 71 69 62 56 51 48 49 40 34 29 25 24 26 24 21 18 18 16 13 9 9 7 21 20 24 27 29 35 48 44 44 41 41
55 62 84 77 74 76 83 77 71 78 78 72 69 60 55 53 50 43 35 29 27 25 22 20 20 18 13 13 14 18 16 18 10 15 19 28 29 39 38 35 36 37 48
51 59 82 87 80 72 71 73 65 67 66 62 60 61 61 55 51 44 37 33 28 26 22 17 17 13 12 10 12 16 15 16 17 13 30 23 32 32 32 27 33 36 43
48 53 71 91 83 71 65 62 65 68 62 60 65 65 65 59 52 46 41 36 32 27 24 19 13 14 10 8 7 9 13 11 17 14 23 36 36 28 36 26 27 31 38
Wind_Direction_850mb
189 180 178 181 178 177 175 176 174 171 172 175 172 168 162 169 170 166 162 161 163 157 150 148 145 145 143 138 130 121 116 104 84 63 56 40 25 16 9 2 353 347 341
187 181 182 183 179 177 176 177 176 175 175 181 181 175 168 170 173 171 167 168 167 159 152 146 145 150 147 140 130 106 109 123 82 53 23 8 1 355 346 339 338 331 328
195 184 184 184 180 181 178 179 179 179 179 183 184 181 175 176 176 174 170 167 165 159 155 152 153 154 153 146 130 125 127 133 75 24 356 338 328 336 338 331 323 325 327
211 191 186 186 184 182 181 181 180 181 184 184 185 184 182 181 179 175 172 166 164 162 159 158 160 158 160 159 178 189 196 254 306 322 334 332 324 322 321 329 329 328 335
207 193 188 186 187 186 183 183 184 184 185 187 192 190 186 183 182 177 172 168 168 168 166 167 165 166 175 188 202 206 239 276 299 341 336 331 335 318 333 338 336 340 343
201 194 191 189 189 190 186 186 186 189 192 193 194 193 188 181 181 176 173 173 173 174 175 175 173 171 189 192 200 214 298 329 357 340 327 320 305 330 340 337 337 342 350
209 196 193 190 191 193 192 189 189 192 195 195 192 188 186 182 181 178 176 177 179 179 183 181 180 181 188 187 197 24 359 357 345 317 318 320 325 330 333 334 338 346 354
206 199 194 193 191 193 195 193 193 192 192 193 190 186 185 184 183 181 181 180 181 184 188 189 187 185 188 180 190 5 351 345 329 324 328 328 323 323 328 333 336 348 351
205 200 195 192 191 196 198 197 196 194 192 191 190 188 187 185 185 185 183 183 184 186 193 198 198 185 185 197 320 346 346 336 326 337 327 319 317 321 326 331 341 346 344
213 202 198 196 194 193 194 197 197 197 194 193 193 190 188 186 188 188 187 185 188 189 196 204 203 190 185 170 19 2 355 351 347 334 319 314 313 318 323 334 343 347 346
212 201 200 197 197 196 197 194 196 198 197 197 196 193 189 188 190 192 191 188 191 194 201 208 205 203 222 267 301 334 335 343 334 326 318 314 314 319 327 338 345 346 348
214 202 200 198 200 197 197 198 195 197 197 198 198 195 192 191 195 194 195 193 192 198 201 205 204 214 236 267 284 323 334 330 329 322 312 311 312 317 328 340 343 345 345
218 207 202 202 203 200 198 197 198 199 199 200 200 199 194 193 196 196 199 196 194 198 196 195 203 221 242 264 299 309 315 321 320 318 303 308 310 316 330 335 341 341 342
223 213 209 207 205 203 204 201 201 201 203 203 200 199 197 197 198 200 200 194 197 199 199 206 218 243 260 271 281 308 312 314 311 301 300 303 301 313 325 329 328 332 337
222 220 211 211 208 205 206 205 204 205 205 204 203 200 200 202 203 203 200 195 198 203 211 221 239 260 255 264 294 308 315 307 299 292 291 296 295 302 311 319 321 329 332
239 226 216 213 213 209 206 208 206 207 207 206 207 203 203 205 207 205 201 195 202 210 223 236 244 253 252 279 293 307 311 303 293 287 287 288 288 297 306 314 319 326 329
237 236 224 218 216 211 207 208 208 209 207 209 208 207 207 206 209 205 199 200 213 220 229 246 238 248 270 284 302 310 306 299 287 285 290 285 287 297 306 314 322 327 325
229 222 224 218 213 210 208 208 208 209 210 211 213 209 209 208 210 209 206 210 219 225 237 240 245 257 275 292 303 305 299 294 294 295 290 283 284 291 304 315 323 324 320
234 221 214 210 208 208 208 207 209 210 210 212 215 215 212 211 211 205 208 216 226 235 242 241 247 265 280 295 302 300 297 297 297 291 287 280 284 293 308 317 323 323 323
227 220 215 209 203 204 204 204 207 207 208 211 214 214 213 212 209 213 218 219 230 240 246 247 254 269 286 298 299 300 302 305 298 292 281 277 285 299 312 321 325 323 322
220 211 213 203 205 208 206 205 205 206 208 210 214 215 216 212 211 213 218 222 226 237 245 249 259 276 290 295 302 306 309 309 299 287 280 281 293 304 312 321 319 317 319
217 212 210 213 210 208 208 205 207 205 206 210 212 215 216 211 210 215 224 223 231 240 247 251 260 272 275 283 303 315 286 308 291 288 280 290 301 308 316 318 319 316 317
214 216 209 207 210 211 207 200 197 198 205 209 211 214 212 208 209 214 216 224 237 239 240 248 255 266 269 294 310 308 321 305 312 301 304 298 305 311 322 323 321 315 317
225 220 214 202 197 201 200 194 194 194 199 205 210 210 204 203 204 208 215 222 226 230 236 245 263 266 263 284 307 305 300 290 306 309 316 310 312 317 322 328 323 319 321
220 218 211 202 199 195 194 192 189 196 203 209 209 205 202 196 203 209 214 217 220 223 228 241 254 262 267 287 299 304 303 300 306 308 306 312 317 316 323 330 323 322 322
212 198 205 199 199 196 190 190 192 196 199 201 202 197 196 198 205 206 210 212 215 220 223 234 257 258 269 295 316 301 297 304 316 331 314 321 318 327 327 327 323 325 326